Location: Unspecified
(0.0000°N, 0.0000°E)
Time: 07:29:04
(UTC+00:00)

N. Korean satellite - Pass Details

Date: 24 July 2021
Orbit: 451 x 498 km, 97.2° (Epoch: 31 July)

Event Time Altitude Azimuth Distance (km) Brightness Sun altitude
Rises 04:42:29 0° 19° (NNE) 2,508 10.8 -19.7°
Reaches altitude 10° 04:44:35 10° 24° (NNE) 1,625 9.8 -19.2°
Maximum altitude 04:47:59 52° 101° (E) 585 7.2 -18.4°
Enters shadow 04:51:13 11° 178° (S) 1,554 8.9 -17.7°
